GFSSW_925_rhum_111.txt.gz
RH
91 83 84 87 88 91 90 88 89 77 84 86 93 92 88 95 95 80 83 58 74 77 70 61 66 62 53 67 65 83 97 97 84 69 59 46 72 65 62 62 53 68 75 76 94
90 83 90 90 87 87 86 89 81 76 87 86 90 93 88 86 90 90 66 76 75 66 59 71 73 57 64 68 73 81 99 77 66 57 64 57 62 63 78 70 66 73 65 87 95
84 88 88 87 86 86 87 86 86 83 94 87 88 83 88 84 80 69 70 61 59 58 54 61 67 62 69 68 73 78 88 68 65 59 67 66 71 68 76 85 81 89 76 74 76
86 86 87 88 86 86 86 88 89 90 96 90 86 79 87 85 72 68 62 59 57 47 48 56 71 71 82 85 72 89 73 68 68 58 65 68 65 79 81 72 86 78 72 82 86
87 86 90 80 87 87 91 94 94 96 95 94 86 80 84 85 78 55 56 48 45 44 54 60 70 78 85 81 79 88 78 70 71 68 62 60 76 70 82 72 83 73 74 84 80
88 83 82 79 84 88 96 97 94 92 90 95 93 86 75 85 53 51 48 47 48 48 58 66 67 71 79 87 84 85 77 80 70 67 59 68 68 80 70 74 85 79 78 80 78
83 90 81 80 85 93 98 96 91 90 96 91 94 89 85 73 53 54 50 50 50 51 60 62 69 67 81 87 78 70 86 77 79 69 67 63 84 82 67 84 73 81 79 74 78
83 89 79 85 89 97 97 87 80 87 92 88 91 87 86 58 50 48 51 51 51 58 60 60 62 79 79 74 82 93 82 82 69 65 66 67 79 71 73 87 80 74 84 76 76
90 86 82 87 93 96 86 66 67 81 93 90 84 85 76 52 51 53 56 58 60 60 60 62 61 76 83 96 86 81 96 85 76 79 76 80 87 66 72 85 76 66 81 68 77
94 91 84 88 92 89 70 57 59 67 75 86 83 75 59 54 52 55 55 57 62 63 67 68 81 90 77 86 90 95 96 88 95 85 72 88 94 80 86 81 75 77 81 70 73
96 92 87 93 93 81 66 64 70 71 64 73 62 63 50 49 52 57 59 58 59 64 82 75 90 97 81 81 78 86 97 98 76 70 79 78 70 75 72 80 82 88 88 80 80
97 92 90 98 88 80 74 71 67 66 72 57 45 48 46 48 58 59 57 66 73 87 70 81 95 68 64 71 78 79 95 96 83 83 73 78 77 56 65 92 84 83 85 77 72
98 88 83 96 77 77 62 65 70 65 82 61 50 53 57 53 64 59 65 65 78 85 98 89 70 60 69 86 89 90 95 96 98 87 80 84 89 90 72 87 90 83 77 73 79
99 84 83 84 76 71 73 69 70 63 89 74 72 65 60 55 68 51 61 63 68 95 100 87 67 70 73 80 81 97 72 93 100 100 95 90 97 98 84 88 86 92 91 82 85
97 75 85 79 77 77 78 74 70 62 91 64 73 56 59 67 63 58 56 65 85 81 100 87 67 71 78 78 86 97 74 91 100 93 91 98 89 76 86 92 82 87 88 82 83
91 67 87 87 82 79 73 72 68 84 87 77 70 75 79 68 67 58 64 61 63 75 76 84 59 69 78 81 81 80 97 97 100 98 94 97 82 70 94 79 72 68 70 70 82
83 73 79 79 83 74 75 75 88 86 71 74 83 72 97 84 79 73 94 95 90 87 88 77 83 84 80 87 78 96 97 96 97 94 99 94 89 73 52 60 65 59 57 57 80
75 76 86 79 79 76 74 86 84 78 91 70 80 69 83 75 100 100 95 97 87 89 93 97 94 99 88 92 94 98 98 95 96 92 92 88 89 51 48 48 49 50 46 47 78
80 84 86 87 77 77 82 95 80 90 71 66 83 82 80 95 98 92 97 87 93 83 94 96 95 98 98 90 98 99 95 96 97 86 90 91 65 45 46 40 46 47 46 45 43
82 87 88 88 81 74 86 80 74 68 60 85 78 81 98 95 96 95 97 82 92 78 65 96 96 81 99 92 80 86 79 91 96 86 98 85 76 70 58 54 42 44 44 48 47
80 93 90 89 77 85 91 82 56 48 62 83 80 76 92 97 95 100 97 80 88 84 67 61 97 83 68 89 98 87 94 95 91 94 95 98 77 51 62 57 54 42 41 44 47
87 99 92 88 94 95 92 65 52 48 61 72 80 82 76 94 77 82 82 85 76 80 77 63 84 86 82 70 81 81 86 88 87 93 99 96 82 52 80 73 60 52 44 46 44
92 96 96 91 96 96 73 58 57 50 51 62 80 58 61 85 92 75 80 71 76 73 87 74 78 90 73 61 61 78 72 83 88 88 98 95 91 60 75 77 78 72 72 72 64
87 96 90 92 88 78 73 63 65 61 49 58 63 54 66 83 74 84 73 74 73 81 63 60 65 70 89 75 71 73 67 69 85 96 98 98 96 70 79 80 76 75 72 78 84
76 84 81 97 93 77 57 58 73 71 57 52 61 56 63 91 81 91 75 88 74 77 77 74 65 68 63 65 65 60 63 66 96 91 92 98 97 72 77 77 72 70 68 70 77
78 82 76 80 73 70 55 54 67 53 66 67 62 58 49 78 80 89 90 87 92 74 93 83 59 84 85 66 61 56 62 85 94 90 84 85 95 69 64 68 71 70 66 66 70
67 59 64 70 65 62 72 56 53 53 54 58 63 69 63 71 64 64 67 79 92 92 80 88 89 88 98 79 63 89 91 80 90 87 85 96 82 72 67 75 76 72 66 65 67

GFSSW_925_rhum_117.txt.gz
RH
93 96 89 83 91 84 89 87 89 88 88 79 91 88 93 94 84 70 81 55 71 83 79 53 59 61 60 68 79 74 91 91 76 68 57 45 47 58 56 60 68 72 66 56 51
95 96 88 88 90 89 90 88 86 86 88 87 92 90 90 87 75 81 52 69 77 70 59 63 73 61 67 72 78 84 82 66 59 58 61 59 65 60 75 72 72 71 59 50 48
95 96 88 87 92 88 90 86 86 93 91 93 93 92 82 74 62 60 78 72 64 62 52 57 71 65 70 73 77 79 81 65 59 59 54 65 67 62 73 72 69 78 51 45 46
97 97 88 89 93 89 87 87 92 96 93 91 84 89 81 73 68 68 67 59 54 46 50 61 76 76 82 84 72 84 71 66 64 59 63 61 55 57 62 63 53 61 55 46 51
97 98 89 92 84 89 86 90 99 95 96 92 88 84 84 79 72 57 62 48 47 46 55 59 74 78 82 80 80 87 79 73 70 69 66 64 66 61 56 55 58 60 65 55 51
95 96 92 89 83 89 86 91 98 92 91 93 95 89 73 80 55 56 51 50 50 51 58 69 72 73 79 79 78 79 81 75 72 66 62 64 59 56 52 50 67 66 68 64 64
97 93 92 90 88 83 87 99 94 89 90 94 94 90 76 70 56 52 55 53 52 52 60 64 71 68 73 76 79 76 80 70 71 66 65 60 67 65 48 50 63 72 68 68 58
96 95 88 92 86 80 87 97 86 84 94 89 96 75 76 60 58 48 52 53 54 58 63 63 66 75 77 75 76 91 83 76 60 68 64 61 61 48 45 54 57 72 72 71 63
100 99 94 92 86 77 86 81 82 85 93 91 76 72 72 54 52 52 56 57 61 63 62 65 64 80 82 84 79 75 93 89 72 60 59 70 65 50 42 60 66 75 70 70 66
99 100 94 85 85 80 86 69 66 75 88 85 82 70 59 59 52 55 58 60 65 67 69 69 80 88 82 88 92 81 86 74 82 66 60 76 80 56 72 76 74 77 71 72 70
90 100 90 82 79 87 74 64 67 69 68 73 70 66 56 48 52 56 60 62 62 66 81 81 92 97 85 77 70 76 92 96 72 59 62 70 74 64 61 72 75 83 80 76 74
95 100 86 91 82 86 78 73 64 59 69 65 63 56 50 49 60 54 59 64 78 91 77 86 93 72 71 70 78 80 92 85 71 60 83 78 74 68 63 70 73 73 81 80 75
97 98 88 75 90 85 81 67 63 60 76 64 53 53 55 54 64 61 66 66 79 90 92 96 71 68 74 82 91 89 92 88 88 64 66 85 81 76 64 58 61 61 66 77 75
89 96 80 82 83 85 77 65 64 60 88 77 71 63 62 55 67 54 64 66 75 89 82 88 79 80 82 83 80 99 71 72 84 90 88 86 82 85 72 71 66 63 73 83 76
97 93 77 78 86 86 78 66 66 58 73 61 75 58 60 67 59 60 62 66 88 82 90 73 80 77 81 77 74 83 79 89 98 96 96 76 98 96 78 78 70 70 82 82 79
100 91 86 92 84 84 74 67 63 85 82 90 72 74 78 72 67 64 72 62 66 83 84 88 73 74 77 80 78 68 84 88 94 97 96 72 97 94 91 74 74 80 82 80 82
100 88 86 86 88 84 74 69 89 88 70 86 77 72 84 88 94 75 88 86 90 92 84 76 86 83 84 92 75 90 97 95 97 96 96 100 81 90 58 71 72 81 81 74 80
98 88 87 84 84 81 65 84 95 69 88 64 74 66 82 92 93 82 86 86 84 93 91 100 82 91 83 87 96 97 98 96 96 95 94 99 94 95 61 50 55 61 64 71 77
91 88 92 92 87 76 77 94 79 87 74 85 71 86 86 88 84 90 91 86 78 91 97 96 86 79 96 98 100 98 98 100 96 95 93 95 84 60 61 62 55 59 59 65 69
90 94 100 94 88 68 90 83 74 68 73 67 82 80 90 93 95 95 91 74 92 84 82 92 97 77 69 86 94 100 99 94 95 95 95 93 93 96 86 81 68 53 55 55 66
67 94 100 94 81 80 94 83 72 62 63 72 83 92 81 89 96 95 88 78 83 88 82 80 94 75 71 91 96 90 92 91 89 92 93 93 96 96 89 88 79 68 51 48 56
91 99 100 92 93 94 96 71 50 65 64 80 73 73 82 74 83 91 91 84 72 86 90 77 89 92 73 63 71 96 93 94 90 93 93 89 97 74 77 81 79 80 73 64 50
98 98 100 90 97 98 78 67 50 51 66 72 67 62 66 75 87 79 85 68 79 83 94 83 79 86 71 57 62 76 68 84 83 82 98 92 97 67 73 76 78 77 77 74 68
90 96 97 97 78 80 73 73 65 58 47 60 59 60 68 73 70 78 81 74 78 80 67 59 69 71 88 80 72 79 87 79 81 89 91 98 95 83 83 86 79 75 71 77 78
76 93 83 97 92 84 67 67 75 70 60 59 56 62 71 80 81 89 71 82 71 75 77 62 86 80 73 70 64 89 94 82 94 91 92 95 94 82 80 89 83 80 70 71 77
74 83 82 88 87 76 61 69 74 65 65 66 62 67 71 86 83 89 88 85 74 75 92 82 78 83 86 77 66 86 92 90 88 94 99 83 81 70 60 78 81 83 76 76 78
70 61 68 75 78 72 66 66 65 61 57 63 59 75 80 71 66 69 78 84 84 79 77 84 85 85 99 90 72 83 96 94 83 83 94 95 86 77 75 67 88 86 81 80 81

GFSSW_925_rhum_123.txt.gz
RH
98 96 95 97 90 89 93 93 90 86 88 88 87 86 92 89 73 77 50 53 56 78 69 58 50 43 40 39 38 38 56 51 37 30 24 20 28 21 21 24 22 21 23 21 22
99 92 96 96 91 89 92 90 88 86 93 91 92 92 91 84 71 51 56 51 73 77 61 51 48 40 43 42 48 57 56 39 25 22 27 24 26 28 30 28 25 29 26 29 32
100 98 92 97 90 92 92 89 85 90 98 86 86 87 73 78 54 41 67 68 77 64 54 45 42 41 42 36 40 49 55 32 27 28 30 32 32 30 37 41 32 31 29 28 31
96 100 95 94 90 95 90 87 86 94 93 84 79 78 74 70 59 57 64 63 54 46 47 44 43 47 46 44 35 48 37 34 33 30 33 37 34 38 38 36 30 32 37 39 36
94 98 98 100 94 89 85 83 85 97 92 92 86 76 78 60 46 60 64 50 45 42 40 40 46 45 48 36 34 39 36 34 30 32 34 35 41 40 38 31 28 30 30 32 37
89 98 100 100 92 81 80 83 95 90 85 79 90 79 67 70 50 52 52 48 46 42 37 37 40 37 44 41 41 34 35 38 34 34 33 38 37 35 31 26 27 28 30 30 31
88 98 98 97 88 74 82 82 91 76 76 82 94 86 65 55 48 50 51 49 46 41 38 41 43 46 42 48 38 43 51 40 35 32 33 32 41 38 27 24 25 24 22 24 27
95 97 99 99 83 82 84 84 75 72 78 93 83 69 63 59 55 52 46 42 45 46 48 50 50 47 47 42 45 46 42 52 32 29 28 31 42 22 20 22 27 26 25 22 22
81 94 86 100 87 84 81 76 80 77 85 86 79 63 58 57 54 46 47 42 46 50 51 50 49 48 49 65 64 46 63 48 35 24 27 33 41 25 21 25 30 28 26 26 24
92 78 89 99 95 77 80 78 78 83 77 74 64 63 51 49 46 48 50 48 42 45 53 55 55 62 60 76 78 64 57 40 39 29 29 37 36 28 24 23 23 24 32 32 33
92 91 98 96 77 94 82 71 63 65 69 61 60 56 45 43 47 46 49 48 44 50 65 64 76 79 56 58 62 58 66 67 45 32 33 34 31 27 22 20 20 22 32 35 37
83 99 94 78 82 80 71 56 52 52 75 63 53 47 43 43 50 43 49 51 52 67 60 64 75 44 40 41 51 52 61 60 41 32 36 36 34 26 23 22 22 24 30 42 41
92 99 92 96 85 76 68 60 60 55 59 61 52 45 46 46 50 47 47 49 55 56 54 77 54 43 50 55 60 60 64 58 61 40 36 38 40 32 24 20 21 22 27 35 39
98 98 81 88 82 71 66 65 62 58 80 63 55 53 51 47 54 43 47 51 56 60 55 62 47 53 53 57 57 92 46 43 47 63 77 47 77 31 21 20 20 22 31 36 38
94 97 81 86 82 80 74 68 65 60 76 65 58 53 51 56 49 56 51 54 64 54 64 58 48 49 56 49 40 60 42 48 66 72 85 58 74 36 24 33 23 28 31 35 34
79 95 88 84 82 82 73 72 64 92 85 85 59 61 65 54 57 47 52 45 45 57 50 52 41 50 56 50 47 45 58 63 77 82 92 56 58 60 84 60 34 30 31 37 45
98 92 96 83 78 81 76 60 95 75 56 75 71 58 72 78 70 57 58 61 67 82 74 56 56 50 64 86 62 66 94 85 93 94 75 89 57 46 95 77 70 62 44 54 56
98 85 80 78 79 79 64 67 81 56 66 52 56 56 80 60 69 66 65 59 54 78 81 78 77 87 95 97 95 98 93 87 91 94 94 96 96 99 95 87 81 72 79 67 66
79 83 94 94 87 72 52 93 65 74 54 78 58 94 77 58 65 90 75 68 65 60 89 79 74 51 62 93 100 100 96 87 94 86 92 95 99 100 95 87 71 75 69 78 82
78 95 99 87 83 59 57 63 59 52 52 58 80 61 78 84 89 82 84 54 64 56 58 79 90 49 46 54 99 100 96 99 99 94 92 93 93 97 99 99 77 79 86 92 95
78 83 92 92 92 46 83 61 52 47 50 57 58 59 47 76 69 76 83 66 61 58 56 68 84 65 54 93 95 89 99 92 95 86 94 85 96 100 100 96 93 96 94 97 96
77 96 87 90 73 60 62 54 53 48 48 50 47 49 47 46 73 76 88 84 50 54 64 51 69 77 58 49 56 94 81 65 89 92 92 92 97 98 96 95 91 92 87 91 96
89 93 80 88 81 60 52 48 45 46 50 46 48 47 44 48 61 48 53 44 49 54 58 51 54 74 62 51 48 98 71 67 77 94 97 87 97 95 93 90 92 93 87 86 95
59 92 71 63 51 49 49 50 50 44 45 44 46 42 42 46 41 48 44 56 53 56 61 52 48 57 76 78 90 94 82 72 81 94 88 98 98 96 93 89 85 81 85 88 92
50 71 58 80 56 54 52 48 52 52 44 42 46 46 49 52 46 46 47 51 53 55 46 48 55 50 53 59 78 68 79 73 94 98 95 100 100 98 85 76 72 67 70 80 91
48 60 51 52 51 53 55 54 53 55 51 51 51 48 47 56 52 58 54 50 56 55 74 57 54 50 50 48 52 65 73 74 90 83 70 67 94 67 68 60 58 60 64 75 78
53 51 38 63 53 48 44 51 52 50 52 50 48 48 53 58 49 47 44 46 52 60 60 63 60 54 70 46 47 60 78 92 85 80 88 98 78 60 70 71 69 62 60 65 67

GFSSW_925_rhum_126.txt.gz
RH
98 99 96 92 97 91 91 89 91 90 85 92 89 86 93 85 73 78 63 61 64 67 65 52 45 42 40 41 42 38 62 64 50 42 36 23 23 21 21 24 23 23 22 20 19
97 100 99 91 94 91 93 91 90 88 88 91 90 88 93 76 76 60 63 56 72 70 66 54 50 40 49 46 48 55 73 57 35 30 28 29 30 29 30 31 30 27 23 24 26
92 99 98 97 98 91 94 91 87 86 91 89 86 80 66 77 62 60 68 60 76 65 64 48 42 40 48 45 47 55 69 47 36 29 28 33 36 33 37 41 37 36 32 35 35
89 93 89 99 92 92 95 90 86 86 89 85 77 64 67 80 66 65 70 70 65 49 46 47 45 54 52 50 38 50 44 44 40 32 33 37 36 38 39 39 34 33 32 36 42
88 91 87 100 99 94 93 85 87 97 93 91 86 67 77 57 53 67 61 49 47 43 42 42 49 50 53 42 37 41 38 32 30 31 32 32 38 40 42 34 31 30 31 34 37
90 94 94 96 100 92 90 73 93 94 92 89 92 72 73 61 48 58 52 48 45 43 38 37 41 39 48 46 47 38 36 37 36 37 35 36 36 38 35 30 31 29 31 30 33
89 96 97 87 95 94 75 90 95 82 83 92 88 80 60 56 46 50 49 48 47 41 38 37 40 47 45 51 39 43 52 47 44 37 39 33 41 42 32 30 32 30 28 26 27
90 94 96 96 100 94 88 94 78 71 81 88 72 71 65 57 52 49 47 43 44 44 44 46 47 50 54 45 48 54 52 66 40 34 30 34 50 32 24 26 31 28 27 25 24
92 93 91 98 99 89 97 71 70 70 85 72 84 66 62 55 49 44 46 42 42 47 48 45 48 56 48 69 80 58 78 66 48 30 29 33 41 30 26 26 28 29 30 28 28
93 94 85 100 89 84 73 76 88 85 74 64 56 61 50 49 46 46 48 46 42 44 52 56 62 72 65 84 94 78 77 59 58 39 36 40 40 30 28 27 27 26 25 23 26
92 80 89 96 80 81 80 80 75 69 60 60 57 52 47 44 45 46 46 47 44 49 72 68 85 88 72 67 67 66 76 76 57 39 40 42 40 34 27 26 25 25 24 22 30
92 99 93 86 88 85 75 65 56 56 76 57 51 45 42 42 50 43 47 53 54 71 68 82 90 54 44 46 52 55 67 66 53 39 38 42 52 38 30 27 25 24 23 22 31
90 94 82 94 84 80 73 60 58 50 68 62 53 46 47 46 50 49 46 47 55 56 60 79 61 44 49 58 67 75 73 67 70 54 49 45 47 39 31 26 24 23 23 24 35
92 98 88 74 81 67 65 68 59 56 90 64 56 56 48 46 57 41 44 51 50 61 58 72 49 47 53 60 53 80 56 56 63 72 87 47 87 52 40 32 25 24 22 25 34
89 88 81 92 77 72 79 62 63 58 93 62 57 50 47 57 47 53 48 50 66 61 72 67 52 54 62 58 48 65 46 52 66 78 84 71 90 58 33 41 43 23 21 29 39
79 95 83 79 80 90 73 67 61 97 89 86 56 56 66 53 52 44 47 50 48 58 54 60 45 50 55 51 55 54 65 72 77 83 95 62 69 78 71 86 75 35 27 33 43
89 88 93 84 79 76 67 64 97 90 54 71 69 55 85 62 60 53 53 62 77 90 85 68 61 47 56 85 69 74 94 95 97 96 86 85 89 71 89 88 76 75 66 41 47
80 73 82 92 84 76 66 87 86 56 67 49 52 60 77 55 63 68 76 74 57 80 88 85 87 78 77 98 98 95 98 97 95 96 94 98 96 97 94 82 79 73 64 64 66
71 79 94 94 85 72 75 94 77 79 48 70 57 84 67 56 68 90 82 79 67 63 94 94 80 60 70 84 100 99 98 89 97 91 96 98 97 99 94 93 84 84 77 80 80
82 84 85 76 90 85 84 66 65 49 49 58 85 61 76 82 85 82 81 60 66 51 63 83 96 55 57 74 98 100 98 99 98 96 96 89 96 97 97 99 93 96 96 95 92
77 77 74 73 87 77 90 62 52 44 47 59 57 52 44 78 72 82 88 72 58 55 50 71 89 72 61 98 98 97 98 100 100 99 97 95 97 100 99 100 96 97 97 98 97
78 94 66 82 86 68 79 51 50 47 47 47 46 47 46 50 76 80 89 82 48 53 65 59 73 94 70 54 63 96 98 92 98 94 95 99 98 100 99 95 97 98 97 98 97
79 81 65 79 96 73 50 50 45 47 46 43 47 44 40 44 63 45 65 44 44 53 63 57 80 88 75 58 56 100 95 81 85 96 98 98 98 98 93 91 94 97 97 96 98
68 85 72 63 54 49 51 50 53 44 46 42 44 43 42 43 40 48 45 53 50 55 57 60 62 68 95 97 97 94 94 86 86 98 94 98 98 97 96 96 91 93 94 95 96
57 70 63 90 59 54 51 46 52 53 43 42 46 45 49 57 48 48 51 50 56 51 59 58 78 56 53 59 64 76 79 85 96 98 98 99 99 98 94 89 89 89 89 91 94
73 67 54 54 47 48 57 54 52 53 53 50 52 47 47 57 57 62 56 55 62 60 81 64 79 52 58 47 49 77 77 80 86 85 89 85 100 76 73 74 70 78 83 91 92
48 45 58 60 52 54 50 54 53 50 51 48 54 50 53 59 54 52 47 47 52 58 68 66 79 65 82 50 46 76 85 88 80 77 93 98 76 72 79 78 77 73 72 75 76